Location: Austin
(30.3000°N, 97.7500°W)
Time: 11:57:12
(UTC-05:00)

Cosmos 2219 Rocket - Pass Details

Date: 03 April 2024
Orbit: 829 x 844 km, 71.0° (Epoch: 22 April)

Event Time Altitude Azimuth Distance (km) Brightness Sun altitude
Exits shadow 05:10:33 77° 310° (NW) 854 2.0 -27.1°
Drops below altitude 10° 05:15:59 10° 17° (NNE) 2,437 5.1 -26.0°
Sets 05:18:26 0° 18° (NNE) 3,372 5.9 -25.5°
